Regional Weather Roundup
Issued by NWS

Home | Current Version | Previous Version | Graphics & Text | Print | Product List | Glossary On
Versions: 1 2 3 4 5 6 7 8 9 10 11 12 13 14 15 16 17 18 19 20 21 22 23 24 25 26 27 28 29 30 31 32 33 34 35 36 37 38 39 40 41 42 43 44 45 46 47 48 49 50
000
ASUS43 KMKX 251221
RWRWI

WISCONSIN REGIONAL WEATHER ROUNDUP
NATIONAL WEATHER SERVICE MILWAUKEE/SULLIVAN WI
700 AM CDT WED MAY 25 2016

NOTE: "FAIR" INDICATES FEW OR NO CLOUDS BELOW 12,000 FEET WITH NO
SIGNIFICANT WEATHER AND/OR OBSTRUCTIONS TO VISIBILITY.

WIZ001-002-006>008-014>016-023>028-251300-
NORTHWEST WISCONSIN

CITY           SKY/WX    TMP DP  RH WIND       PRES   REMARKS
SUPERIOR ARPT  FOG       45  45 100 E7        30.02R VSB 1/2
6HR MIN TEMP:  44; 6HR MAX TEMP:  47;

ASHLAND        FOG       49  49 100 NE8       30.02S VSB 1/4
6HR MIN TEMP:  48; 6HR MAX TEMP:  50;

HAYWARD        CLOUDY    54  52  93 N6        29.98R
6HR MIN TEMP:  50; 6HR MAX TEMP:  58;

SIREN          FOG       57  56  98 E6        29.95S VSB 1
6HR MIN TEMP:  56; 6HR MAX TEMP:  59;

CUMBERLAND     CLOUDY    59  57  94 E6        29.95F
RICE LAKE      CLOUDY    62  58  86 E3        29.97S
6HR MIN TEMP:  57; 6HR MAX TEMP:  62;

CHETEK         CLOUDY    61  59  94 E5        29.96S
6HR MIN TEMP:  56; 6HR MAX TEMP:  63;

LADYSMITH      CLOUDY    59  58  96 CALM      29.99S
6HR MIN TEMP:  55; 6HR MAX TEMP:  63;

EAU CLAIRE     CLOUDY    61  57  87 CALM      29.95R
6HR MIN TEMP:  55; 6HR MAX TEMP:  61;

MENOMONIE      CLOUDY    61  59  92 CALM      29.94R
6HR MIN TEMP:  56; 6HR MAX TEMP:  61;

NEW RICHMOND   CLOUDY    62  55  80 E9        29.92S
6HR MIN TEMP:  60; 6HR MAX TEMP:  64;

OSCEOLA        CLOUDY    63  59  87 E7        29.94S
6HR MIN TEMP:  59; 6HR MAX TEMP:  63;

$$

WIZ003>005-009-010-017-018-251300-
NORTH CENTRAL WISCONSIN

CITY           SKY/WX    TMP DP  RH WIND       PRES   REMARKS
MANITOWISH WTR NOT AVBL
ARBOR VITAE    FOG       59  58  97 E5        30.02R VSB 1/2
6HR MIN TEMP:  53; 6HR MAX TEMP:  59;

WOODRUFF       FOG       59  58  97 E5        30.02R VSB 1/2
6HR MIN TEMP:  53; 6HR MAX TEMP:  59;

RHINELANDER    FOG       57  56  96 E9        30.03R VSB 1/4
6HR MIN TEMP:  50; 6HR MAX TEMP:  57;

EAGLE RIVER    FOG       58  58 100 E6        30.03R VSB 1
LAND O LAKES   CLOUDY    56  56 100 E3        30.04R FOG
6HR MIN TEMP:  56; 6HR MAX TEMP:  61;

PHILLIPS       FOG       55  55 100 E5        30.00R VSB 3/4
6HR MIN TEMP:  49; 6HR MAX TEMP:  55;

TOMAHAWK       CLOUDY    55  54  97 E3        30.02R FOG
6HR MIN TEMP:  46; 6HR MAX TEMP:  55;

MEDFORD        MOSUNNY   58  58 100 E7        29.99R
6HR MIN TEMP:  54; 6HR MAX TEMP:  58;

MERRILL        MOSUNNY   55  55 100 E3        30.02R
$$

WIZ029-030-035-036-043>047-251300-
CENTRAL WISCONSIN

CITY           SKY/WX    TMP DP  RH WIND       PRES   REMARKS
WAUSAU         PTSUNNY   60  57  89 E8        29.99R FOG
6HR MIN TEMP:  55; 6HR MAX TEMP:  65;

MOSINEE        SUNNY     59  59 100 E7        29.99R
MARSHFIELD     CLOUDY    62  57  83 E6        29.98R
6HR MIN TEMP:  58; 6HR MAX TEMP:  64;

STEVENS POINT  CLOUDY    58  56  94 E5        30.01R
6HR MIN TEMP:  49; 6HR MAX TEMP:  58;

WAUPACA        MOSUNNY   61  60  97 NE5       30.01R
6HR MIN TEMP:  56; 6HR MAX TEMP:  61;

WAUTOMA        SUNNY     61  57  87 N5        30.00R
6HR MIN TEMP:  53; 6HR MAX TEMP:  61;

WISC RAPIDS    CLOUDY    62  55  77 E7        30.00R
6HR MIN TEMP:  54; 6HR MAX TEMP:  62;

CAMP DOUGLAS   PTSUNNY   55  55 100 E2        29.97R
$$

WIZ011>013-019>022-031-037>040-048>050-251300-
NORTHEAST WISCONSIN

CITY           SKY/WX    TMP DP  RH WIND       PRES   REMARKS
ANTIGO         FOG       56  56 100 E7        30.03R VSB 1/4
6HR MIN TEMP:  49; 6HR MAX TEMP:  56;

SHAWANO        CLOUDY    61  59  94 E9        30.03R FOG
6HR MIN TEMP:  57; 6HR MAX TEMP:  64;

OCONTO         CLOUDY   N/A N/A N/A NE7       30.03R
STURGEON BAY   NOT AVBL
GREEN BAY      CLOUDY    57  56  96 NE15      30.03R FOG
6HR MIN TEMP:  57; 6HR MAX TEMP:  62;

MANITOWOC      FOG       55  54  96 NE9G18    30.03R VSB 1/2
6HR MIN TEMP:  54; 6HR MAX TEMP:  59;

APPLETON       FOG       57  57 100 NE10G16   29.99R VSB 1
CLINTONVILLE   FOG       57  55  94 E7        30.02R VSB 1/2
OSHKOSH        SUNNY     62  58  86 NE8       30.00R FOG
6HR MIN TEMP:  56; 6HR MAX TEMP:  63;

$$

WIZ032>034-041-042-053>061-251300-
SOUTHWEST WISCONSIN

CITY           SKY/WX    TMP DP  RH WIND       PRES   REMARKS
LA CROSSE      CLOUDY    64  58  80 E3        29.93R
6HR MIN TEMP:  60; 6HR MAX TEMP:  66;

SPARTA         PTSUNNY   56  54  95 CALM      29.96S
6HR MIN TEMP:  47; 6HR MAX TEMP:  56;

VIROQUA        CLOUDY    65  59  81 E9        29.95S
6HR MIN TEMP:  60; 6HR MAX TEMP:  66;

BOSCOBEL       CLOUDY    62  60  93 NE3       29.95R FOG
6HR MIN TEMP:  56; 6HR MAX TEMP:  62;

PRAIRIE DU CHI CLOUDY    62  59  92 CALM      29.95R
6HR MIN TEMP:  60; 6HR MAX TEMP:  64;

PLATTEVILLE    CLOUDY    68  65  90 S7        29.96R
6HR MIN TEMP:  63; 6HR MAX TEMP:  69;

$$

WIZ056-057-062-063-064-067-068-251300-
SOUTH CENTRAL WISCONSIN

CITY           SKY/WX    TMP DP  RH WIND       PRES   REMARKS
REEDSBURG      MOSUNNY   60  58  92 CALM      29.97R
6HR MIN TEMP:  55; 6HR MAX TEMP:  60;

BARABOO/DELLS  MOSUNNY   64  59  85 NE5       29.97R
6HR MIN TEMP:  56; 6HR MAX TEMP:  64;

LONE ROCK      CLOUDY    62  59  90 NE5       29.97R
6HR MIN TEMP:  57; 6HR MAX TEMP:  62;

MINERAL POINT  CLOUDY    66  61  82 SE5       29.97R
MADISON        PTSUNNY   66  61  84 S3        29.97R
6HR MIN TEMP:  59; 6HR MAX TEMP:  66;

MIDDLETON      SUNNY     66  63  89 CALM      29.98R
6HR MIN TEMP:  57; 6HR MAX TEMP:  66;

WATERTOWN      SUNNY     66  65  96 E5        29.97R
6HR MIN TEMP:  60; 6HR MAX TEMP:  66;

MONROE         CLOUDY    64  61  88 S8        29.98R
JANESVILLE     SUNNY     66  64  94 SE5       29.97R
$$

WIZ051-052-058>065-066-070>072-251300-
SOUTHEAST WISCONSIN

CITY           SKY/WX    TMP DP  RH WIND       PRES   REMARKS
MILWAUKEE      CLOUDY    67  57  70 CALM      29.99R
6HR MIN TEMP:  60; 6HR MAX TEMP:  67;

WAUKESHA       SUNNY     63  61  94 S2        30.00R
MILWAUKEE/TIMM MOSUNNY   61  57  88 CALM      29.99R FOG
RACINE         MOSUNNY   70  61  73 SW3       30.01R
6HR MIN TEMP:  60; 6HR MAX TEMP:  70;

BURLINGTON     SUNNY     63  60  90 CALM      29.99R
6HR MIN TEMP:  58; 6HR MAX TEMP:  67;

KENOSHA        MOSUNNY   69  62  78 SW6       29.99R
6HR MIN TEMP:  62; 6HR MAX TEMP:  69;

FOND DU LAC    SUNNY     64  59  83 NE5       29.99R
6HR MIN TEMP:  54; 6HR MAX TEMP:  64;

SHEBOYGAN      MOSUNNY   57  52  83 NE13      30.01R HAZE
6HR MIN TEMP:  53; 6HR MAX TEMP:  59;

WEST BEND      SUNNY     61  59  94 CALM      30.00R
JUNEAU         SUNNY     65  60  84 E3        29.99R
6HR MIN TEMP:  60; 6HR MAX TEMP:  65;

$$

LSZ147-162-251300-
LAKE SUPERIOR

STATION/POSITION TIME  TEMP    WIND        PRES    WAVE
                       AIR SEA DIR/SP/G            HT/PER
                 (UTC) (F)     (DEG/KT/KT) (MB)    (FT/S)
W MID LAKE BUOY  1150   40 38   50/ 14/ 16 1018.1F   1/ 3
DEVILS ISLAND    1200   45      60/ 15/ 17 1017.8F
SAXON HARBOR     1140   47      30/  3/  3 1016.3F
$$

LMZ867-665-643>646-251300-
LAKE MICHIGAN

STATION/POSITION TIME  TEMP    WIND        PRES    WAVE
                       AIR SEA DIR/SP/G            HT/PER
                 (UTC) (F)     (DEG/KT/KT) (MB)    (FT/S)
CHAMBERS ISLAND  1100   53     360/ 14/ 16 1017.3
N MID LAKE BUOY  1150   47 44  360/  6/  8 1016.8F   1
NORTHPORT PIER   1100   51     340/  8/ 10 1017.6R
SISTER BAY       1135   51      30/  5/  8   N/A
ALGOMA LAKESHORE 1132           30/  9/ 14   N/A
KEWAUNEE LAKESHO 1100   50      30/ 10/ 14 1015.5R
SHEBOYGAN LAKEC1F1C2F2C3F3C4F4C5F5C6F6C7F7C8M1C9M2Ca!



USA.gov is the U.S. government's official web portal to all federal, state and local government web resources and services.